Location: Arrodets-la-Barthe
(43.0306°N, 0.2829°E)
Time: 00:43:27
(UTC+00:00)

Cosmos 2344 - Pass Details

Date: 29 May 2022
Orbit: 1228 x 3015 km, 63.3° (Epoch: 04 July)

Event Time Altitude Azimuth Distance (km) Brightness Sun altitude
Rises 22:10:51 0° 259° (W) 4,209 6.5 -20.8°
Reaches altitude 10° 22:14:04 10° 271° (W) 3,194 6.0 -21.1°
Maximum altitude 22:20:20 29° 330° (NNW) 2,131 5.5 -21.6°
Drops below altitude 10° 22:27:08 10° 29° (NNE) 3,469 6.3 -22.1°
Sets 22:30:49 0° 41° (NE) 4,638 6.9 -22.3°
